User: anonymous   Login
Location: Unspecified
(0.0000°N, 0.0000°E)
Time: 04:14:46
(UTC+00:00)
Language:

Nadezhda 6 - Orbit

View from above orbital plane
View from above orbital plane
View from above satellite
View from above satellite

Ground track
Ground track

The orbit data is extracted from the following two-line orbital elements,

1 26384U 00033A   18344.61395349  .00000095  00000-0  25578-4 0  9994
2 26384  97.9455  40.6717 0016613 112.2790 248.0186 14.66468110986153
Epoch (UTC): 10 December 2018 14:44:05
Eccentricity: 0.0016613
inclination: 97.9455°
perigee height: 660 km
apogee height: 684 km
right ascension of ascending node: 40.6717°
argument of perigee: 112.2790°
revolutions per day: 14.66468110
mean anomaly at epoch: 248.0186°
orbit number at epoch: 98615

The dashed part of the orbit path shows where the satellite is in the earth's shadow,  

DLR